Flag for Canada Weather past 2 weeks in Stephenville, Newfoundland and Labrador, Canada

Now
66 °F

Broken clouds.


Feels Like: 66 °F
Forecast: 52 / 69 °F
Wind: 9 mph from Northeast

Location: Stephenville

Current Time: Jul 5, 2015 at 11:23:39 AM

Latest Report: Jul 5, 2015 at 10:30 AM


Visibility: 15 mi

Pressure: 29.93 "Hg

Humidity: 60%

Dew point: 52 °F

Location of StephenvilleLocation

Historic Weather in Stephenville — Graph

°F

Stephenville temperature yesterday

Maximum temperature yesterday: 59 °F (at 3:30 PM)
Minimum temperature yesterday: 52 °F (at 11:30 PM)
Average temperature yesterday: 56 °F

Past Weeks' High & Low Weather Summary

 TemperatureHumidityPressure
High73 °F (Jul 2, 2:30 PM)100% (Jun 21, 3:30 AM)30.19 "Hg (Jun 21, 3:30 AM)
Low39 °F (Jun 21, 3:30 AM)40% (Jun 23, 4:30 PM)29.69 "Hg (Jun 25, 7:30 AM)
Average55 °F80%29.93 "Hg
* Reported Jun 20 10:30 AM — Jul 5 10:30 AM, Stephenville, Weather by CustomWeather, © 2015

Note: Actual official high and low records may vary slightly from our data, if they occured in-between our weather recording intervals... More about our weather records

Advertising

Stephenville weather history for previous 24 hours

 ConditionsComfort  
Time TempWeatherWind HumidityBarometerVisibility
10:30 AM
Sun, Jul 5
66 °FBroken clouds.9 mph60%29.93 "Hg15 mi
9:30 AMN/AMore clouds than sun.N/AN/AN/A15 mi
8:30 AM61 °FBroken clouds.9 mph77%29.94 "Hg15 mi
7:30 AM57 °FPartly sunny.6 mph82%29.96 "Hg15 mi
6:30 AM54 °FBroken clouds.5 mph88%29.96 "Hg15 mi
5:30 AM54 °FPassing clouds.3 mph88%29.96 "Hg15 mi
4:30 AM54 °FPassing clouds.6 mph88%29.96 "Hg15 mi
3:30 AM54 °FPassing clouds.6 mph88%29.96 "Hg15 mi
2:30 AM52 °FPassing clouds.6 mph94%29.97 "Hg15 mi
1:30 AM52 °FPassing clouds.6 mph94%29.98 "Hg15 mi
12:30 AM54 °FPassing clouds.5 mph88%29.98 "Hg15 mi
11:30 PM
Sat, Jul 4
52 °FPassing clouds.5 mph94%29.98 "Hg15 mi
10:30 PM55 °FOvercast.5 mph88%29.98 "Hg15 mi
9:30 PM55 °FPartly sunny.No wind88%29.96 "Hg15 mi
8:30 PM55 °FPartly sunny.3 mph94%29.96 "Hg15 mi
7:30 PM57 °FPartly sunny.7 mph88%29.96 "Hg15 mi
6:30 PM57 °FScattered clouds.10 mph88%29.94 "Hg15 mi
5:30 PM59 °FScattered clouds.10 mph82%29.93 "Hg15 mi
4:30 PM59 °FPartly sunny.9 mph88%29.93 "Hg15 mi
3:30 PM59 °FScattered clouds.9 mph82%29.92 "Hg15 mi
2:30 PM57 °FPartly sunny.12 mph88%29.91 "Hg15 mi
1:30 PM57 °FPartly sunny.9 mph88%29.90 "Hg15 mi
12:30 PM57 °FPartly sunny.10 mph88%29.90 "Hg15 mi
11:30 AM55 °FMore clouds than sun.10 mph94%29.89 "Hg15 mi
Weather by CustomWeather, © 2015

See weather overviewHow to use our weather pages